Location: Trois-Rivi�res
(46.3500°N, 72.5500°W)
Time: 04:26:42
(UTC-05:00)

OTV 5 (USA 277) - Pass Details

Date: 11 October 2017
Orbit: 404 x 417 km, 43.0° (Epoch: 07 September)

Event Time Altitude Azimuth Distance (km) Brightness Sun altitude
Rises 18:53:21 0° 218° (SW) 2,345 ? -8.2°
Reaches altitude 10° 18:55:55 10° 198° (SSW) 1,486 ? -8.6°
Maximum altitude 18:58:15 18° 154° (SSE) 1,109 ? -9.0°
Enters shadow 19:00:17 11° 113° (ESE) 1,409 ? -9.4°
